Location: Girdwood
(60.9430°N, 149.1660°W)
Time: 13:13:54
(UTC-09:00)

Amateur Radio Satellites - All Passes

Search period start: 02 December 2016 12:43
Search period end: 03 December 2016 12:43
Location: Girdwood, 60.9430°N, 149.1660°W

Satellite Date Start Highest point End Downlink Frequencies (MHz)
Time Altitude Azimuth
QB50P1 02 Dec 12:47:44 12:51:03 21° 271° (W) 12:54:23 145.935-145.965
BEESAT 2 02 Dec 12:47:45 12:51:43 53° 12° (NNE) 12:55:42 435.950
DELFI C3 02 Dec 12:48:22 12:51:21 21° 308° (NW) 12:54:20 145.870
DUCHIFAT 1 02 Dec 12:55:21 12:58:36 21° 271° (W) 13:01:52 145.980
RS-15 02 Dec 12:55:59 13:08:16 77° 349° (N) 13:20:45 29.354- 29.394
AIST 2 02 Dec 13:00:09 13:04:19 64° 340° (NNW) 13:08:32 435.215
AO-7 02 Dec 13:03:02 13:10:40 42° 39° (NE) 13:18:20 29.400- 29.500
POPSAT HIP 1 02 Dec 13:09:50 13:12:28 16° 275° (W) 13:15:05 437.405
JAS-2 02 Dec 13:10:18 13:14:46 20° 275° (W) 13:18:57 435.910
PCSat 02 Dec 13:11:05 13:15:30 26° 116° (ESE) 13:19:55 145.827
CUBEBUG 1 02 Dec 13:13:39 13:18:08 79° 106° (ESE) 13:22:35 437.445
VELOX 1 02 Dec 13:13:48 13:18:15 59° 103° (ESE) 13:22:40 145.980
Oscar 19 02 Dec 13:15:46 13:20:55 76° 253° (WSW) 13:26:07 437.125/150
ZACube-1 02 Dec 13:15:48 13:16:55 11° 325° (NW) 13:18:02 437.345
ITAMSAT 1 02 Dec 13:35:33 13:40:24 40° 56° (NE) 13:45:15 435.822/435.867
DX 1 02 Dec 13:40:46 13:45:08 60° 104° (ESE) 13:49:29 434.975-435.025
HUMSAT D 02 Dec 13:42:47 13:45:16 16° 314° (NW) 13:47:43 437.325/437.525
ESTCUBE 1 02 Dec 13:49:29 13:53:47 45° 299° (WNW) 13:58:05 437.505/2401.250
GONETS M04 02 Dec 13:51:05 13:59:29 55° 270° (W) 14:07:52
50 SAT 02 Dec 13:53:00 13:56:32 69° 290° (WNW) 14:00:05 437.505
SWISSCUBE 02 Dec 13:53:30 13:54:22 10° 78° (ENE) 13:55:13 437.505
Cosmos 2491 02 Dec 13:55:50 14:01:29 18° 358° (N) 14:07:08 435.465 / 435.565
UKube-1 02 Dec 13:55:58 14:00:19 64° 104° (ESE) 14:04:38 .
BEESAT 02 Dec 13:58:01 13:58:51 10° 78° (ENE) 13:59:42 436.000
HO-68 02 Dec 14:00:57 14:05:30 18° 353° (N) 14:10:04 435.675
BEESAT 3 02 Dec 14:05:19 14:09:17 64° 218° (SW) 14:13:15 437.485
BUGSAT 1 02 Dec 14:11:18 14:12:43 11° 280° (W) 14:14:08 437.445
AISAT 02 Dec 14:13:05 14:17:28 53° 296° (WNW) 14:21:50 437.250
Cosmos 2499 02 Dec 14:16:55 14:24:57 41° 278° (W) 14:32:38 435.465 / 435.565
SPROUT 02 Dec 14:17:20 14:21:37 62° 293° (WNW) 14:25:53 437.525
TISAT 1 02 Dec 14:17:52 14:21:54 39° 98° (E) 14:25:54 437.305
Gurwin Techsat 1B 02 Dec 14:19:08 14:24:18 50° 260° (W) 14:29:31 435.225
NOAA 18 02 Dec 14:21:10 14:22:53 11° 15° (NNE) 14:24:38 137.9125
DANDE 02 Dec 14:21:25 14:22:40 11° 309° (NW) 14:23:51 436.750
ITUPSAT 1 02 Dec 14:21:26 14:24:16 15° 83° (E) 14:27:04 437.325
BEESAT 2 02 Dec 14:25:41 14:29:44 74° 214° (SW) 14:33:46 435.950
AUBIESAT-1 02 Dec 14:31:14 14:33:43 14° 89° (E) 14:36:10 437.475
AIST 2 02 Dec 14:39:10 14:43:16 49° 3° (N) 14:47:24 435.215
M-CUBED/EXP-1 PRIME 02 Dec 14:39:27 14:42:46 19° 93° (E) 14:46:04 437.505
CUTE-I 02 Dec 14:44:27 14:46:47 13° 26° (NNE) 14:49:07 437.470
CUBEBUG 1 02 Dec 14:50:24 14:54:03 26° 308° (NW) 14:57:43 437.445
VELOX 1 02 Dec 14:50:34 14:54:32 32° 304° (NW) 14:58:31 145.980
GOMX 1 02 Dec 14:51:43 14:53:57 13° 33° (NNE) 14:56:15 467.674
PCSat 02 Dec 14:52:51 14:58:17 79° 138° (SE) 15:03:45 145.827
BRITE-PL 02 Dec 14:54:09 14:57:08 18° 43° (NE) 15:00:16 437.365/2234.400
AO-7 02 Dec 14:54:34 15:02:55 89° 244° (WSW) 15:11:20 29.400- 29.500
Oscar 19 02 Dec 14:57:30 15:01:08 19° 275° (W) 15:04:48 437.125/150
Cubesat XI-IV 02 Dec 15:08:00 15:11:03 15° 32° (NNE) 15:14:05 437.490
RS-15 02 Dec 15:09:30 15:21:56 82° 21° (NNE) 15:34:19 29.354- 29.394
ITAMSAT 1 02 Dec 15:14:38 15:19:47 57° 257° (WSW) 15:24:58 435.822/435.867
DX 1 02 Dec 15:17:15 15:21:09 31° 305° (NW) 15:25:02 434.975-435.025
NOAA 15 02 Dec 15:18:44 15:22:03 17° 36° (NE) 15:25:23 137.62
DOVE 4 02 Dec 15:22:27 15:24:43 13° 32° (NNE) 15:27:01 437.250
HORYU 2 02 Dec 15:23:13 15:26:47 24° 49° (NE) 15:30:20 437.375
50 SAT 02 Dec 15:27:16 15:29:17 15° 311° (NW) 15:31:17 437.505
ESTCUBE 1 02 Dec 15:27:18 15:29:40 14° 320° (NW) 15:32:04 437.505/2401.250
SWISSCUBE 02 Dec 15:28:49 15:33:26 46° 100° (E) 15:38:00 437.505
UKube-1 02 Dec 15:32:21 15:36:08 29° 306° (NW) 15:39:54 .
BEESAT 02 Dec 15:33:17 15:37:55 45° 100° (E) 15:42:29 436.000
MOZHAYETS 4 02 Dec 15:37:28 15:40:51 20° 87° (E) 15:44:12
BEESAT 3 02 Dec 15:43:36 15:46:19 18° 239° (WSW) 15:49:01 437.485
HO-68 02 Dec 15:46:01 15:51:00 21° 19° (NNE) 15:55:59 435.675
GONETS M04 02 Dec 15:48:52 15:54:24 19° 296° (WNW) 15:59:55
AISAT 02 Dec 15:50:25 15:53:08 16° 318° (NW) 15:55:50 437.250
TISAT 1 02 Dec 15:53:35 15:57:37 42° 299° (WNW) 16:01:38 437.305
SPROUT 02 Dec 15:54:03 15:56:52 17° 315° (NW) 15:59:39 437.525
Cosmos 2491 02 Dec 15:55:30 16:02:24 25° 31° (NNE) 16:09:16 435.465 / 435.565
NOAA 18 02 Dec 15:57:41 16:01:48 22° 39° (NE) 16:05:56 137.9125
ITUPSAT 1 02 Dec 15:58:16 16:03:03 66° 105° (ESE) 16:07:47 437.325
Gurwin Techsat 1B 02 Dec 16:03:16 16:05:35 13° 282° (WNW) 16:07:55 435.225
BEESAT 2 02 Dec 16:03:57 16:07:01 21° 236° (WSW) 16:10:05 435.950
AUBIESAT-1 02 Dec 16:04:26 16:09:02 59° 110° (ESE) 16:13:35 437.475
Cosmos 2499 02 Dec 16:11:37 16:15:36 14° 304° (WNW) 16:19:31 435.465 / 435.565
M-CUBED/EXP-1 PRIME 02 Dec 16:13:14 16:17:56 76° 113° (ESE) 16:22:39 437.505
AIST 2 02 Dec 16:17:54 16:22:09 78° 26° (NNE) 16:26:23 435.215
CUTE-I 02 Dec 16:20:48 16:25:24 30° 49° (NE) 16:30:02 437.470
GOMX 1 02 Dec 16:26:29 16:30:46 35° 56° (NE) 16:35:20 467.674
VELOX 1 02 Dec 16:28:33 16:29:51 11° 326° (NNW) 16:31:10 145.980
BRITE-PL 02 Dec 16:30:29 16:34:48 60° 66° (ENE) 16:39:29 437.365/2234.400
KKS-1 02 Dec 16:36:01 16:39:54 27° 92° (E) 16:43:44 437.445
PCSat 02 Dec 16:36:44 16:42:03 52° 342° (NNW) 16:47:24 145.827
LilacSat-2 02 Dec 16:41:31 16:44:44 25° 57° (ENE) 16:47:57 437.200
Cubesat XI-IV 02 Dec 16:44:58 16:49:55 39° 55° (NE) 16:54:53 437.490
AO-7 02 Dec 16:49:27 16:56:47 34° 269° (W) 17:04:13 29.400- 29.500
STARS 02 Dec 16:53:05 16:56:33 22° 89° (E) 17:00:00 437.465
DX 1 02 Dec 16:55:06 16:56:12 11° 327° (NNW) 16:57:16 434.975-435.025
NOAA 15 02 Dec 16:55:49 17:00:49 47° 58° (ENE) 17:05:51 137.62
DOVE 4 02 Dec 16:56:40 17:01:05 34° 55° (NE) 17:05:42 437.250
ITAMSAT 1 02 Dec 16:57:35 17:00:25 15° 279° (W) 17:03:16 435.822/435.867
HORYU 2 02 Dec 16:58:23 17:02:53 90° 91° (E) 17:07:25 437.375
CANX-2 02 Dec 17:04:27 17:06:17 13° 41° (NE) 17:08:06 2200.000
CUBESAT XI-V 02 Dec 17:06:21 17:10:05 23° 89° (E) 17:13:48 437.345
SWISSCUBE 02 Dec 17:06:45 17:11:16 43° 301° (WNW) 17:15:45 437.505
CINEMA 3 02 Dec 17:07:27 17:11:02 20° 45° (NE) 17:14:39 145.822/145.860
UKube-1 02 Dec 17:10:28 17:11:00 10° 328° (NNW) 17:11:32 .
BEESAT 02 Dec 17:11:13 17:15:45 43° 301° (WNW) 17:20:14 436.000
MOZHAYETS 4 02 Dec 17:14:04 17:18:41 90° 118° (ESE) 17:23:15
RS-15 02 Dec 17:22:19 17:34:24 64° 231° (SW) 17:46:19 29.354- 29.394
O/OREOS (USA 219) 02 Dec 17:24:51 17:28:32 25° 108° (ESE) 17:32:13 437.305
TISAT 1 02 Dec 17:30:24 17:32:20 13° 321° (NW) 17:34:16 437.305
HO-68 02 Dec 17:30:37 17:37:05 38° 44° (NE) 17:43:34 435.675
NOAA 18 02 Dec 17:36:10 17:41:36 59° 62° (ENE) 17:47:06 137.9125
ITUPSAT 1 02 Dec 17:36:26 17:40:40 32° 306° (NW) 17:44:52 437.325
SEEDS 02 Dec 17:37:28 17:39:43 14° 44° (NE) 17:41:58 437.485
AUBIESAT-1 02 Dec 17:39:02 17:43:18 38° 311° (NW) 17:47:34 437.475
M-CUBED/EXP-1 PRIME 02 Dec 17:48:00 17:52:07 32° 314° (NW) 17:56:15 437.505
CUBEBUG 2 02 Dec 17:52:13 17:55:07 16° 43° (NE) 17:58:00 437.445
Cosmos 2491 02 Dec 17:53:08 18:01:42 53° 61° (ENE) 18:10:11 435.465 / 435.565
COMPASS 1 02 Dec 17:55:17 17:57:32 15° 44° (NE) 17:59:48 437.405
AIST 2 02 Dec 17:56:33 18:00:26 36° 228° (SW) 18:04:20 435.215
ZACube-1 02 Dec 17:58:46 17:59:50 11° 35° (NE) 18:00:53 437.345
CUTE-I 02 Dec 17:59:39 18:05:04 84° 254° (WSW) 18:10:29 437.470
GOMX 1 02 Dec 18:04:06 18:08:41 58° 259° (W) 18:13:40 467.674
FUNcube-1 02 Dec 18:08:16 18:09:42 11° 37° (NE) 18:11:08 145.935
BRITE-PL 02 Dec 18:09:54 18:13:43 29° 269° (W) 18:17:49 437.365/2234.400
KKS-1 02 Dec 18:12:22 18:16:51 66° 294° (WNW) 18:21:19 437.445
LilacSat-2 02 Dec 18:14:58 18:18:48 61° 258° (WSW) 18:22:38 437.200
CUTE 1.7 + AOD 2 02 Dec 18:20:26 18:24:08 30° 57° (ENE) 18:27:50 437.475
PCSat 02 Dec 18:21:05 18:26:20 46° 8° (N) 18:31:34 145.827
Cosmos 2504 02 Dec 18:22:21 18:25:56 13° 55° (NE) 18:29:35 435.465 / 435.565
Cubesat XI-IV 02 Dec 18:24:31 18:29:52 62° 256° (WSW) 18:35:14 437.490
STARS 02 Dec 18:28:59 18:33:28 81° 290° (WNW) 18:37:54 437.465
DOVE 4 02 Dec 18:33:40 18:38:31 66° 257° (WSW) 18:43:41 437.250
NOAA 15 02 Dec 18:35:37 18:40:40 48° 260° (W) 18:45:47 137.62
HORYU 2 02 Dec 18:36:46 18:40:04 20° 272° (W) 18:43:23 437.375
CANX-2 02 Dec 18:37:14 18:41:14 43° 63° (ENE) 18:45:14 2200.000
YUBILEINY 02 Dec 18:37:17 18:44:00 26° 71° (ENE) 18:50:46 435.215
UWE-3 02 Dec 18:41:49 18:45:25 23° 50° (NE) 18:48:58 435.000/436.395/437.385
Oscar 11 02 Dec 18:42:22 18:44:57 16° 44° (NE) 18:47:33 145.826/435.025
CINEMA 3 02 Dec 18:42:29 18:47:24 63° 66° (ENE) 18:52:24 145.822/145.860
CUBESAT XI-V 02 Dec 18:43:22 18:48:01 79° 291° (WNW) 18:52:41 437.345
SWISSCUBE 02 Dec 18:45:27 18:48:03 15° 323° (NW) 18:50:41 437.505
BEESAT 02 Dec 18:49:54 18:52:32 15° 323° (NW) 18:55:10 436.000
MOZHAYETS 4 02 Dec 18:51:45 18:55:23 24° 310° (NW) 18:59:00
AAUSAT CUBESAT 2 02 Dec 19:02:30 19:06:07 30° 58° (ENE) 19:09:45 437.432
DELFI C3 02 Dec 19:02:46 19:03:30 10° 40° (NE) 19:04:14 145.870
O/OREOS (USA 219) 02 Dec 19:02:57 19:07:31 83° 308° (NW) 19:12:06 437.305
SEEDS 02 Dec 19:10:35 19:14:38 52° 65° (ENE) 19:18:43 437.485
STRAND 1 02 Dec 19:11:37 19:15:18 19° 85° (E) 19:18:58 437.568
AUBIESAT-1 02 Dec 19:14:02 19:16:44 16° 332° (NNW) 19:19:27 437.475
ITUPSAT 1 02 Dec 19:15:29 19:17:17 12° 329° (NNW) 19:19:05 437.325
HO-68 02 Dec 19:17:07 19:24:19 87° 247° (WSW) 19:31:35 435.675
NOAA 18 02 Dec 19:17:22 19:22:34 40° 263° (W) 19:27:48 137.9125
M-CUBED/EXP-1 PRIME 02 Dec 19:23:06 19:25:29 14° 335° (NNW) 19:27:54 437.505
CUBEBUG 2 02 Dec 19:26:16 19:30:54 52° 64° (ENE) 19:35:28 437.445
COMPASS 1 02 Dec 19:28:18 19:32:20 53° 65° (ENE) 19:36:23 437.405
CUSAT 1 02 Dec 19:28:19 19:29:37 12° 54° (NE) 19:31:00 437.405
ZACube-1 02 Dec 19:30:57 19:34:58 32° 57° (ENE) 19:38:56 437.345
RS-15 02 Dec 19:35:07 19:44:35 28° 259° (W) 19:53:56 29.354- 29.394
FUNcube-1 02 Dec 19:40:47 19:44:53 34° 58° (ENE) 19:48:55 145.935
CUTE-I 02 Dec 19:41:45 19:45:54 22° 273° (W) 19:50:05 437.470
GOMX 1 02 Dec 19:45:34 19:47:59 14° 282° (WNW) 19:50:29 467.674
KKS-1 02 Dec 19:49:37 19:52:45 19° 315° (NW) 19:55:52 437.445
Cosmos 2491 02 Dec 19:50:20 19:58:54 62° 267° (W) 20:07:24 435.465 / 435.565
LilacSat-2 02 Dec 19:52:35 19:53:54 11° 278° (W) 19:55:14 437.200
CUTE 1.7 + AOD 2 02 Dec 19:55:39 19:59:48 57° 258° (WSW) 20:03:59 437.475
HUMSAT D 02 Dec 19:57:48 20:00:31 17° 47° (NE) 20:03:14 437.325/437.525
PCSat 02 Dec 20:04:55 20:10:23 74° 32° (NNE) 20:15:50 145.827
STARS 02 Dec 20:05:55 20:09:17 22° 312° (NW) 20:12:39 437.465
Cubesat XI-IV 02 Dec 20:07:47 20:11:04 16° 279° (W) 20:14:21 437.490
Cosmos 2504 02 Dec 20:09:07 20:16:45 39° 81° (E) 20:24:43 435.465 / 435.565
CANX-2 02 Dec 20:13:14 20:17:11 38° 263° (W) 20:21:09 2200.000
DOVE 4 02 Dec 20:14:11 20:17:16 16° 280° (W) 20:20:27 437.250
Oscar 11 02 Dec 20:16:06 20:20:20 56° 66° (ENE) 20:24:35 145.826/435.025
UWE-3 02 Dec 20:16:42 20:21:23 84° 70° (ENE) 20:26:00 435.000/436.395/437.385
NOAA 15 02 Dec 20:19:52 20:21:49 12° 283° (WNW) 20:23:47 137.62
CINEMA 3 02 Dec 20:20:25 20:24:53 32° 268° (W) 20:29:26 145.822/145.860
CUBESAT XI-V 02 Dec 20:21:20 20:24:51 22° 311° (NW) 20:28:22 437.345
YUBILEINY 02 Dec 20:30:47 20:39:27 73° 97° (E) 20:48:12 435.215
DELFI C3 02 Dec 20:33:45 20:37:22 36° 61° (ENE) 20:41:00 145.870
AAUSAT CUBESAT 2 02 Dec 20:37:24 20:41:27 55° 259° (W) 20:45:31 437.432
O/OREOS (USA 219) 02 Dec 20:43:30 20:47:33 30° 333° (NNW) 20:51:34 437.305
SEEDS 02 Dec 20:46:51 20:50:34 30° 266° (W) 20:54:18 437.485
STRAND 1 02 Dec 20:50:11 20:55:21 78° 107° (ESE) 21:00:28 437.568
ISS 02 Dec 20:52:39 20:54:43 16° 169° (S) 20:56:47 145.825
AIST 1 02 Dec 20:59:19 21:03:28 48° 96° (E) 21:07:42
CUBEBUG 2 02 Dec 21:03:16 21:07:42 37° 265° (W) 21:12:05 437.445
COMPASS 1 02 Dec 21:04:31 21:08:08 29° 266° (W) 21:11:48 437.405
ZACube-1 02 Dec 21:06:34 21:11:05 61° 258° (WSW) 21:15:33 437.345
HO-68 02 Dec 21:06:54 21:13:02 30° 271° (W) 21:19:13 435.675
CUSAT 1 02 Dec 21:09:00 21:11:53 89° 262° (W) 21:15:24 437.405
CUBEBUG 1 02 Dec 21:09:47 21:12:06 14° 40° (NE) 21:14:25 437.445
VELOX 1 02 Dec 21:11:33 21:13:28 13° 37° (NE) 21:15:24 145.980
FUNcube-1 02 Dec 21:16:33 21:21:00 54° 259° (W) 21:25:25 145.935
DANDE 02 Dec 21:19:03 21:21:25 28° 64° (ENE) 21:23:48 436.750
HUMSAT D 02 Dec 21:31:19 21:35:30 66° 69° (ENE) 21:39:40 437.325/437.525
CUTE 1.7 + AOD 2 02 Dec 21:35:05 21:36:37 12° 280° (W) 21:38:08 437.475
TIGRISAT 02 Dec 21:36:29 21:37:20 10° 77° (ENE) 21:38:10 435.000
ANTELSAT 02 Dec 21:36:36 21:37:52 11° 78° (ENE) 21:39:06 437.575/2403.000
DX 1 02 Dec 21:37:10 21:39:05 13° 37° (NE) 21:40:59 434.975-435.025
PRISM 02 Dec 21:38:13 21:41:49 27° 94° (E) 21:45:24 437.425
ESTCUBE 1 02 Dec 21:46:02 21:49:51 28° 54° (NE) 21:53:40 437.505/2401.250
Cosmos 2491 02 Dec 21:47:59 21:54:02 22° 293° (WNW) 22:00:04 435.465 / 435.565
PCSat 02 Dec 21:48:31 21:53:37 42° 235° (SW) 21:58:42 145.827
UKube-1 02 Dec 21:51:30 21:53:26 13° 38° (NE) 21:55:24 .
Oscar 11 02 Dec 21:52:57 21:56:46 30° 267° (W) 22:00:35 145.826/435.025
UWE-3 02 Dec 21:54:45 21:58:24 22° 272° (W) 22:02:01 435.000/436.395/437.385
Cosmos 2504 02 Dec 22:00:59 22:09:32 81° 286° (WNW) 22:18:32 435.465 / 435.565
AISAT 02 Dec 22:08:20 22:11:56 25° 51° (NE) 22:15:34 437.250
DELFI C3 02 Dec 22:08:28 22:12:11 40° 262° (W) 22:15:57 145.870
SPROUT 02 Dec 22:10:23 22:13:24 19° 47° (NE) 22:16:25 437.525
AAUSAT CUBESAT 2 02 Dec 22:16:44 22:17:53 11° 280° (W) 22:19:02 437.432
AUBIESAT-1 02 Dec 22:20:56 22:22:21 11° 16° (NNE) 22:23:46 437.475
O/OREOS (USA 219) 02 Dec 22:24:49 22:28:16 21° 358° (N) 22:31:42 437.305
ISS 02 Dec 22:28:16 22:30:23 16° 189° (S) 22:32:29 145.825
YUBILEINY 02 Dec 22:28:39 22:36:58 46° 304° (NW) 22:45:23 435.215
M-CUBED/EXP-1 PRIME 02 Dec 22:29:17 22:31:11 13° 20° (NNE) 22:33:07 437.505
STRAND 1 02 Dec 22:29:45 22:34:11 30° 309° (NW) 22:38:36 437.568
SO-50 02 Dec 22:29:56 22:34:08 32° 129° (SE) 22:38:17 436.795
AIST 1 02 Dec 22:37:17 22:41:15 34° 298° (WNW) 22:45:18
UNISAT 6 02 Dec 22:39:45 22:43:47 31° 93° (E) 22:47:43 437.425
CUBEBUG 1 02 Dec 22:43:18 22:47:29 46° 62° (ENE) 22:51:43 437.445
VELOX 1 02 Dec 22:44:49 22:48:55 38° 59° (ENE) 22:53:03 145.980
ZACube-1 02 Dec 22:46:02 22:48:17 13° 279° (W) 22:50:33 437.345
CUSAT 1 02 Dec 22:52:49 22:53:27 10° 270° (W) 22:54:06 437.405
FUNcube-1 02 Dec 22:56:29 22:58:15 12° 280° (W) 23:00:00 145.935
DANDE 02 Dec 23:02:02 23:04:00 19° 265° (W) 23:06:00 436.750
50 SAT 02 Dec 23:04:42 23:08:00 38° 63° (ENE) 23:11:18 437.505
HUMSAT D 02 Dec 23:08:02 23:11:31 24° 269° (W) 23:14:59 437.325/437.525
POPSAT HIP 1 02 Dec 23:08:15 23:09:15 11° 79° (E) 23:10:15 437.405
DX 1 02 Dec 23:10:13 23:14:16 39° 59° (ENE) 23:18:22 434.975-435.025
TIGRISAT 02 Dec 23:10:48 23:15:13 48° 99° (E) 23:19:29 435.000
ANTELSAT 02 Dec 23:11:17 23:15:44 50° 100° (E) 23:20:02 437.575/2403.000
PRISM 02 Dec 23:13:20 23:17:25 58° 295° (WNW) 23:21:30 437.425
GONETS M04 02 Dec 23:17:56 23:21:58 14° 58° (ENE) 23:25:59
ESTCUBE 1 02 Dec 23:21:53 23:26:22 71° 254° (WSW) 23:30:53 437.505/2401.250
Cosmos 2499 02 Dec 23:23:48 23:28:44 17° 60° (ENE) 23:33:43 435.465 / 435.565
UKube-1 02 Dec 23:24:28 23:28:31 40° 60° (ENE) 23:32:36 .
SWISSCUBE 02 Dec 23:33:23 23:35:41 14° 35° (NE) 23:37:58 437.505
PCSat 02 Dec 23:33:56 23:35:43 12° 257° (WSW) 23:37:30 145.827
BEESAT 02 Dec 23:37:50 23:40:07 14° 34° (NE) 23:42:25 436.000
AISAT 02 Dec 23:43:33 23:48:00 84° 255° (WSW) 23:52:31 437.250
TISAT 1 02 Dec 23:44:24 23:47:53 25° 53° (NE) 23:51:23 437.305
SPROUT 02 Dec 23:44:25 23:48:43 71° 69° (ENE) 23:53:03 437.525
AUBIESAT-1 02 Dec 23:52:02 23:55:26 22° 38° (NE) 23:58:57 437.475
Cosmos 2504 02 Dec 23:56:39 00:04:23 35° 314° (NW) 00:12:24 435.465 / 435.565
M-CUBED/EXP-1 PRIME 03 Dec 00:00:48 00:04:26 27° 42° (NE) 00:08:15 437.505
ITUPSAT 1 03 Dec 00:02:01 00:05:03 17° 40° (NE) 00:08:05 437.325
NANOSAT C BR1 03 Dec 00:03:43 00:07:21 26° 92° (E) 00:10:56 145.865
BUGSAT 1 03 Dec 00:04:48 00:06:59 14° 83° (E) 00:09:08 437.445
O/OREOS (USA 219) 03 Dec 00:05:09 00:09:03 27° 23° (NNE) 00:12:55 437.305
JAS-2 03 Dec 00:05:29 00:10:24 38° 95° (E) 00:15:15 435.910
QB50P2 03 Dec 00:05:58 00:09:46 30° 94° (E) 00:13:31 145.880/145.840
POLYITAN 1 03 Dec 00:06:37 00:10:23 29° 93° (E) 00:14:06 437.675
SO-50 03 Dec 00:09:32 00:14:17 89° 161° (SSE) 00:18:57 436.795
STRAND 1 03 Dec 00:09:58 00:12:01 12° 332° (NNW) 00:14:04 437.568
UNISAT 6 03 Dec 00:16:20 00:20:49 57° 295° (WNW) 00:25:09 437.425
AIST 1 03 Dec 00:19:34 00:20:17 10° 322° (NW) 00:21:00
CUBEBUG 1 03 Dec 00:19:49 00:23:54 38° 263° (W) 00:28:02 437.445
QB50P1 03 Dec 00:20:46 00:24:45 36° 96° (E) 00:28:42 145.935-145.965
VELOX 1 03 Dec 00:21:04 00:25:21 47° 260° (W) 00:29:41 145.980
DUCHIFAT 1 03 Dec 00:27:40 00:31:39 36° 97° (E) 00:35:35 145.980
YUBILEINY 03 Dec 00:30:01 00:36:34 22° 334° (NNW) 00:43:11 435.215
50 SAT 03 Dec 00:38:12 00:41:23 32° 263° (W) 00:44:36 437.505
POPSAT HIP 1 03 Dec 00:41:52 00:46:05 51° 101° (E) 00:50:14 437.405
DX 1 03 Dec 00:46:16 00:50:28 45° 260° (W) 00:54:42 434.975-435.025
TIGRISAT 03 Dec 00:47:40 00:51:52 38° 301° (WNW) 00:55:57 435.000
ANTELSAT 03 Dec 00:48:13 00:52:23 36° 302° (WNW) 00:56:26 437.575/2403.000
PRISM 03 Dec 00:49:31 00:52:01 16° 316° (NW) 00:54:31 437.425
UKube-1 03 Dec 01:00:28 01:04:35 43° 261° (W) 01:08:46 .
ESTCUBE 1 03 Dec 01:01:20 01:04:01 16° 276° (W) 01:06:44 437.505/2401.250
SWISSCUBE 03 Dec 01:07:59 01:12:23 38° 57° (ENE) 01:16:47 437.505
GONETS M04 03 Dec 01:08:23 01:16:23 43° 84° (E) 01:24:22
Cosmos 2499 03 Dec 01:11:32 01:19:41 47° 86° (E) 01:28:02 435.465 / 435.565
BEESAT 03 Dec 01:12:25 01:16:49 38° 57° (ENE) 01:21:13 436.000
MOZHAYETS 4 03 Dec 01:13:53 01:16:50 17° 43° (NE) 01:19:46
Oscar 19 03 Dec 01:17:19 01:21:04 20° 85° (E) 01:24:49 437.125/150
TISAT 1 03 Dec 01:18:55 01:23:11 77° 254° (WSW) 01:27:29 437.305
SPROUT 03 Dec 01:21:34 01:25:05 24° 270° (W) 01:28:38 437.525
AISAT 03 Dec 01:22:06 01:25:11 18° 274° (W) 01:28:17 437.250
AUBIESAT-1 03 Dec 01:24:58 01:29:14 72° 60° (ENE) 01:33:46 437.475
M-CUBED/EXP-1 PRIME 03 Dec 01:34:13 01:38:28 88° 244° (WSW) 01:43:03 437.505
ITUPSAT 1 03 Dec 01:37:23 01:42:02 52° 62° (ENE) 01:46:41 437.325
BUGSAT 1 03 Dec 01:38:57 01:43:13 66° 105° (ESE) 01:47:24 437.445
NANOSAT C BR1 03 Dec 01:39:12 01:43:27 63° 293° (WNW) 01:47:38 145.865
QB50P2 03 Dec 01:41:38 01:45:51 55° 295° (WNW) 01:50:00 145.880/145.840
POLYITAN 1 03 Dec 01:42:16 01:46:29 57° 294° (WNW) 01:50:39 437.675
O/OREOS (USA 219) 03 Dec 01:44:40 01:49:13 69° 48° (NE) 01:53:41 437.305
SO-50 03 Dec 01:50:28 01:55:06 56° 354° (N) 01:59:38 436.795
JAS-2 03 Dec 01:50:41 01:55:51 54° 299° (WNW) 02:00:53 435.910
UNISAT 6 03 Dec 01:53:51 01:56:44 17° 317° (NW) 01:59:34 437.425
Cosmos 2504 03 Dec 01:55:02 02:01:08 20° 344° (NNW) 02:07:17 435.465 / 435.565
QB50P1 03 Dec 01:56:33 02:00:40 46° 297° (WNW) 02:04:44 145.935-145.965
VELOX 1 03 Dec 02:02:29 02:02:58 10° 282° (WNW) 02:03:27 145.980
DUCHIFAT 1 03 Dec 02:03:22 02:07:28 45° 298° (WNW) 02:11:29 145.980
KKS-1 03 Dec 02:08:33 02:11:59 22° 48° (NE) 02:15:25 437.445
POPSAT HIP 1 03 Dec 02:17:53 02:21:46 34° 302° (WNW) 02:25:36 437.405
Gurwin Techsat 1B 03 Dec 02:24:35 02:29:24 33° 93° (E) 02:34:10 435.225
STARS 03 Dec 02:24:39 02:27:41 18° 45° (NE) 02:30:43 437.465
TIGRISAT 03 Dec 02:25:34 02:27:29 13° 323° (NW) 02:29:24 435.000
ANTELSAT 03 Dec 02:26:11 02:27:59 12° 324° (NW) 02:29:46 437.575/2403.000
YUBILEINY 03 Dec 02:31:48 02:37:35 18° 8° (N) 02:43:22 435.215
CUBESAT XI-V 03 Dec 02:43:53 02:47:05 19° 46° (NE) 02:50:18 437.345
AO-7 03 Dec 02:45:14 02:50:27 17° 77° (ENE) 02:55:39 29.400- 29.500
SWISSCUBE 03 Dec 02:45:25 02:50:06 54° 258° (WSW) 02:54:49 437.505
MOZHAYETS 4 03 Dec 02:48:43 02:53:14 57° 65° (ENE) 02:57:45
BEESAT 03 Dec 02:49:50 02:54:31 54° 258° (WSW) 02:59:15 436.000
Oscar 19 03 Dec 02:56:02 03:01:15 78° 107° (ESE) 03:06:28 437.125/150
TISAT 1 03 Dec 02:56:55 02:59:33 16° 275° (W) 03:02:14 437.305
AUBIESAT-1 03 Dec 03:00:30 03:04:05 26° 262° (W) 03:07:52 437.475
Cosmos 2499 03 Dec 03:03:52 03:12:35 70° 292° (WNW) 03:21:32 435.465 / 435.565
GONETS M04 03 Dec 03:04:05 03:12:49 73° 290° (WNW) 03:21:34
M-CUBED/EXP-1 PRIME 03 Dec 03:10:29 03:13:37 20° 266° (W) 03:16:55 437.505
BUGSAT 1 03 Dec 03:14:41 03:18:20 28° 305° (NW) 03:21:55 437.445
ITUPSAT 1 03 Dec 03:15:37 03:20:04 37° 263° (W) 03:24:33 437.325
NANOSAT C BR1 03 Dec 03:15:43 03:18:29 17° 314° (NW) 03:21:14 145.865
ITAMSAT 1 03 Dec 03:17:06 03:21:26 26° 90° (E) 03:25:42 435.822/435.867
QB50P2 03 Dec 03:18:20 03:20:53 16° 316° (NW) 03:23:25 145.880/145.840
POLYITAN 1 03 Dec 03:18:56 03:21:32 16° 316° (NW) 03:24:07 437.675
O/OREOS (USA 219) 03 Dec 03:24:25 03:28:21 30° 249° (WSW) 03:32:14 437.305
STRAND 1 03 Dec 03:25:51 03:26:14 10° 21° (NNE) 03:26:37 437.568
SO-50 03 Dec 03:31:24 03:36:03 66° 18° (NNE) 03:40:36 436.795
QB50P1 03 Dec 03:33:25 03:35:34 14° 319° (NW) 03:37:41 145.935-145.965
JAS-2 03 Dec 03:36:27 03:40:00 18° 323° (NW) 03:43:28 435.910
DUCHIFAT 1 03 Dec 03:40:10 03:42:15 13° 319° (NW) 03:44:19 145.980
KKS-1 03 Dec 03:43:31 03:48:01 82° 71° (ENE) 03:52:33 437.445
Cosmos 2504 03 Dec 03:52:31 03:58:42 20° 16° (NNE) 04:04:52 435.465 / 435.565
POPSAT HIP 1 03 Dec 03:55:18 03:56:28 11° 324° (NW) 03:57:38 437.405
STARS 03 Dec 03:58:57 04:03:21 64° 66° (ENE) 04:07:47 437.465
Gurwin Techsat 1B 03 Dec 04:04:28 04:09:46 67° 295° (WNW) 04:15:03 435.225
AO-85 03 Dec 04:13:24 04:17:27 29° 128° (SE) 04:21:15 145.980
CUBESAT XI-V 03 Dec 04:19:14 04:23:47 66° 67° (ENE) 04:28:23 437.345
BRITE-PL 03 Dec 04:25:19 04:27:30 12° 78° (ENE) 04:29:42 437.365/2234.400
MOZHAYETS 4 03 Dec 04:26:34 04:30:41 32° 266° (W) 04:34:49
SWISSCUBE 03 Dec 04:26:58 04:29:01 13° 280° (W) 04:31:04 437.505
YUBILEINY 03 Dec 04:30:40 04:38:10 29° 40° (NE) 04:45:39 435.215
BEESAT 03 Dec 04:31:20 04:33:25 13° 280° (W) 04:35:30 436.000
Oscar 19 03 Dec 04:35:44 04:40:15 31° 309° (NW) 04:44:45 437.125/150
AO-7 03 Dec 04:37:15 04:45:26 52° 102° (ESE) 04:53:34 29.400- 29.500
ITAMSAT 1 03 Dec 04:56:17 05:01:31 82° 291° (WNW) 05:06:43 435.822/435.867
Cosmos 2499 03 Dec 04:59:54 05:07:31 31° 319° (NW) 05:15:12 435.465 / 435.565
STRAND 1 03 Dec 04:59:55 05:03:50 23° 44° (NE) 05:07:44 437.568
GONETS M04 03 Dec 05:03:48 05:11:20 31° 318° (NW) 05:18:54
SO-50 03 Dec 05:12:02 05:16:34 56° 221° (SW) 05:20:59 436.795
Cosmos 2491 03 Dec 05:18:29 05:21:44 13° 55° (NE) 05:24:58 435.465 / 435.565
AIST 1 03 Dec 05:18:53 05:20:45 12° 42° (NE) 05:22:37
KKS-1 03 Dec 05:21:39 05:25:09 22° 271° (W) 05:28:40 437.445
STARS 03 Dec 05:36:16 05:40:05 27° 267° (W) 05:43:56 437.465
Gurwin Techsat 1B 03 Dec 05:44:57 05:48:59 22° 317° (NW) 05:53:00 435.225
Cosmos 2504 03 Dec 05:47:21 05:55:24 35° 47° (NE) 06:03:17 435.465 / 435.565
NOAA 18 03 Dec 05:49:49 05:51:18 11° 76° (ENE) 05:52:45 137.9125
AO-85 03 Dec 05:52:54 05:57:33 86° 146° (SE) 06:01:51 145.980
GOMX 1 03 Dec 05:54:56 05:59:27 27° 89° (E) 06:04:05 467.674
CUBESAT XI-V 03 Dec 05:57:38 06:01:35 28° 269° (W) 06:05:33 437.345
BRITE-PL 03 Dec 06:02:11 06:07:08 49° 98° (E) 06:12:26 437.365/2234.400
CUTE-I 03 Dec 06:06:47 06:10:36 19° 84° (E) 06:14:24 437.470
HORYU 2 03 Dec 06:15:33 06:19:51 43° 99° (E) 06:24:05 437.375
Oscar 19 03 Dec 06:16:03 06:18:13 13° 332° (NNW) 06:20:23 437.125/150
DOVE 4 03 Dec 06:22:12 06:26:25 23° 86° (E) 06:30:37 437.250
YUBILEINY 03 Dec 06:28:02 06:36:52 68° 68° (ENE) 06:45:40 435.215
AO-7 03 Dec 06:30:19 06:38:34 65° 306° (NW) 06:46:49 29.400- 29.500
Cubesat XI-IV 03 Dec 06:31:20 06:35:53 27° 90° (E) 06:40:23 437.490
HO-68 03 Dec 06:35:27 06:38:01 12° 71° (ENE) 06:40:33 435.675
ITAMSAT 1 03 Dec 06:36:14 06:40:27 26° 314° (NW) 06:44:39 435.822/435.867
STRAND 1 03 Dec 06:37:12 06:42:20 71° 66° (ENE) 06:47:28 437.568
NOAA 15 03 Dec 06:39:57 06:44:39 32° 93° (E) 06:49:22 137.62
SO-50 03 Dec 06:53:22 06:56:13 16° 243° (WSW) 06:59:00 436.795
AIST 1 03 Dec 06:55:22 06:59:35 42° 66° (ENE) 07:03:48
Cosmos 2499 03 Dec 06:58:14 07:04:12 19° 349° (N) 07:10:08 435.465 / 435.565
PRISM 03 Dec 07:03:23 07:06:14 19° 48° (NE) 07:09:07 437.425
JAS-2 03 Dec 07:05:07 07:06:00 10° 16° (NNE) 07:06:52 435.910
GONETS M04 03 Dec 07:06:02 07:11:47 19° 350° (N) 07:17:32
Cosmos 2491 03 Dec 07:08:07 07:15:56 38° 81° (E) 07:23:45 435.465 / 435.565
TIGRISAT 03 Dec 07:10:09 07:11:38 11° 34° (NE) 07:13:07 435.000
ANTELSAT 03 Dec 07:10:34 07:12:12 12° 35° (NE) 07:13:49 437.575/2403.000
LilacSat-2 03 Dec 07:12:22 07:16:06 49° 100° (E) 07:19:47 437.200
BEESAT 3 03 Dec 07:18:52 07:22:12 27° 128° (SE) 07:25:34 437.485
Gurwin Techsat 1B 03 Dec 07:26:16 07:27:16 10° 341° (NNW) 07:28:15 435.225
NOAA 18 03 Dec 07:28:12 07:33:31 43° 98° (E) 07:38:47 137.9125
CUTE 1.7 + AOD 2 03 Dec 07:31:03 07:33:28 15° 83° (E) 07:35:54 437.475
GOMX 1 03 Dec 07:32:45 07:38:05 82° 289° (WNW) 07:43:36 467.674
AO-85 03 Dec 07:33:52 07:38:16 52° 352° (N) 07:42:21 145.980
BRITE-PL 03 Dec 07:40:50 07:45:40 46° 299° (WNW) 07:50:50 437.365/2234.400
Cosmos 2504 03 Dec 07:41:13 07:50:14 82° 74° (ENE) 07:58:57 435.465 / 435.565
BEESAT 2 03 Dec 07:41:16 07:44:29 24° 126° (SE) 07:47:44 435.950
CUTE-I 03 Dec 07:46:12 07:51:36 75° 108° (ESE) 07:56:56 437.470
CANX-2 03 Dec 07:47:52 07:51:09 21° 89° (E) 07:54:25 2200.000
HORYU 2 03 Dec 07:52:13 07:56:26 41° 300° (WNW) 08:00:37 437.375
RS-15 03 Dec 07:59:10 08:08:52 31° 104° (ESE) 08:18:49 29.354- 29.394
DOVE 4 03 Dec 07:59:28 08:04:49 87° 106° (ESE) 08:10:09 437.250
CINEMA 3 03 Dec 08:04:03 08:08:45 40° 95° (E) 08:13:17 145.822/145.860
AAUSAT CUBESAT 2 03 Dec 08:10:12 08:12:25 14° 83° (E) 08:14:39 437.432
Cubesat XI-IV 03 Dec 08:11:10 08:16:35 81° 293° (WNW) 08:21:56 437.490
UNISAT 6 03 Dec 08:12:41 08:16:21 23° 50° (NE) 08:19:59 437.425
ITAMSAT 1 03 Dec 08:16:49 08:18:25 11° 337° (NNW) 08:20:00 435.822/435.867
STRAND 1 03 Dec 08:17:30 08:21:59 30° 268° (W) 08:26:30 437.568
NOAA 15 03 Dec 08:19:38 08:24:53 68° 295° (WNW) 08:30:07 137.62
SEEDS 03 Dec 08:19:53 08:23:24 25° 91° (E) 08:26:53 437.485
HO-68 03 Dec 08:21:12 08:27:58 41° 95° (E) 08:34:42 435.675
AO-7 03 Dec 08:23:05 08:30:14 33° 332° (NNW) 08:37:23 29.400- 29.500
YUBILEINY 03 Dec 08:25:13 08:33:28 47° 274° (W) 08:41:45 435.215
AIST 1 03 Dec 08:33:06 08:37:13 38° 267° (W) 08:41:17
COMPASS 1 03 Dec 08:36:24 08:39:54 26° 92° (E) 08:43:23 437.405
PRISM 03 Dec 08:36:54 08:40:59 76° 68° (ENE) 08:45:07 437.425
POPSAT HIP 1 03 Dec 08:37:50 08:37:59 10° 34° (NE) 08:38:08 437.405
TIGRISAT 03 Dec 08:43:01 08:47:10 32° 56° (NE) 08:51:17 435.000
ANTELSAT 03 Dec 08:43:34 08:47:46 34° 57° (ENE) 08:51:55 437.575/2403.000
CUBEBUG 2 03 Dec 08:43:36 08:47:34 28° 91° (E) 08:51:25 437.445
JAS-2 03 Dec 08:45:00 08:49:19 21° 41° (NE) 08:53:22 435.910
ZACube-1 03 Dec 08:45:32 08:48:08 15° 83° (E) 08:50:42 437.345
LilacSat-2 03 Dec 08:46:56 08:50:16 29° 301° (WNW) 08:53:34 437.200
FUNcube-1 03 Dec 08:54:57 08:57:47 17° 85° (E) 09:00:36 145.935
Cosmos 2499 03 Dec 08:55:02 09:01:28 21° 21° (NNE) 09:07:47 435.465 / 435.565
BEESAT 3 03 Dec 08:55:31 08:59:29 89° 134° (SE) 09:03:30 437.485
Cosmos 2491 03 Dec 09:03:22 09:12:12 81° 287° (WNW) 09:21:01 435.465 / 435.565
CUTE 1.7 + AOD 2 03 Dec 09:05:52 09:10:06 73° 105° (ESE) 09:14:19 437.475
GONETS M04 03 Dec 09:06:30 09:12:50 21° 23° (NNE) 09:19:10
NOAA 18 03 Dec 09:08:57 09:14:24 55° 300° (WNW) 09:19:47 137.9125
GOMX 1 03 Dec 09:11:19 09:15:38 26° 310° (NW) 09:20:03 467.674
AO-85 03 Dec 09:14:53 09:19:11 58° 15° (NNE) 09:23:11 145.980
BEESAT 2 03 Dec 09:17:51 09:21:51 82° 148° (SSE) 09:25:54 435.950
BRITE-PL 03 Dec 09:20:13 09:23:12 16° 320° (NW) 09:26:20 437.365/2234.400
CANX-2 03 Dec 09:23:17 09:27:30 76° 290° (WNW) 09:31:43 2200.000
CUTE-I 03 Dec 09:26:36 09:31:20 33° 309° (NW) 09:36:03 437.470
Oscar 11 03 Dec 09:29:11 09:32:57 28° 93° (E) 09:36:42 145.826/435.025
HORYU 2 03 Dec 09:29:50 09:32:01 14° 322° (NW) 09:34:12 437.375
NANOSAT C BR1 03 Dec 09:31:19 09:34:14 18° 47° (NE) 09:37:10 145.865
BUGSAT 1 03 Dec 09:31:28 09:32:49 11° 37° (NE) 09:34:10 437.445
Oscar 19 03 Dec 09:32:07 09:32:43 10° 21° (NNE) 09:33:19 437.125/150
UWE-3 03 Dec 09:32:39 09:36:58 46° 98° (E) 09:41:08 435.000/436.395/437.385
QB50P2 03 Dec 09:33:48 09:36:57 20° 49° (NE) 09:40:06 145.880/145.840
POLYITAN 1 03 Dec 09:34:28 09:37:35 20° 48° (NE) 09:40:42 437.675
Cosmos 2504 03 Dec 09:35:02 09:43:00 39° 279° (W) 09:50:46 435.465 / 435.565
DELFI C3 03 Dec 09:36:01 09:38:26 15° 86° (E) 09:40:51 145.870
DOVE 4 03 Dec 09:37:34 09:42:03 29° 308° (NW) 09:46:32 437.250
CINEMA 3 03 Dec 09:41:12 09:46:03 51° 297° (WNW) 09:50:44 145.822/145.860
AIST 2 03 Dec 09:41:55 09:44:32 16° 119° (ESE) 09:47:11 435.215
AAUSAT CUBESAT 2 03 Dec 09:44:33 09:48:41 70° 104° (ESE) 09:52:49 437.432
UNISAT 6 03 Dec 09:47:51 09:52:34 85° 73° (ENE) 09:57:15 437.425
QB50P1 03 Dec 09:48:09 09:51:32 23° 52° (NE) 09:54:57 145.935-145.965
Cubesat XI-IV 03 Dec 09:51:43 09:56:05 26° 314° (NW) 10:00:26 437.490
DUCHIFAT 1 03 Dec 09:54:32 09:57:54 23° 52° (NE) 10:01:18 145.980
SEEDS 03 Dec 09:55:19 09:59:28 63° 292° (WNW) 10:03:36 437.485
NOAA 15 03 Dec 09:59:57 10:03:57 22° 317° (NW) 10:07:57 137.62
RS-15 03 Dec 10:07:28 10:19:19 69° 133° (SE) 10:31:32 29.354- 29.394
POPSAT HIP 1 03 Dec 10:08:52 10:12:37 30° 56° (NE) 10:16:24 437.405
HO-68 03 Dec 10:09:03 10:16:14 72° 299° (WNW) 10:23:24 435.675
COMPASS 1 03 Dec 10:11:42 10:15:49 62° 292° (WNW) 10:19:55 437.405
PRISM 03 Dec 10:13:38 10:16:47 21° 270° (W) 10:19:56 437.425
AO-7 03 Dec 10:14:38 10:20:57 25° 358° (N) 10:27:17 29.400- 29.500
TIGRISAT 03 Dec 10:19:00 10:23:40 63° 257° (WSW) 10:28:17 435.000
ANTELSAT 03 Dec 10:19:40 10:24:19 60° 258° (WSW) 10:28:56 437.575/2403.000
CUBEBUG 2 03 Dec 10:20:02 10:24:35 62° 293° (WNW) 10:28:57 437.445
ZACube-1 03 Dec 10:20:52 10:25:14 75° 104° (ESE) 10:29:30 437.345
CUSAT 1 03 Dec 10:23:10 10:25:34 23° 97° (E) 10:27:46 437.405
YUBILEINY 03 Dec 10:23:15 10:28:03 16° 300° (WNW) 10:32:52 435.215
JAS-2 03 Dec 10:27:34 10:33:39 61° 63° (ENE) 10:39:07 435.910
FUNcube-1 03 Dec 10:30:24 10:34:46 83° 105° (ESE) 10:39:01 145.935
BEESAT 3 03 Dec 10:33:33 10:37:25 49° 352° (N) 10:41:19 437.485
DANDE 03 Dec 10:38:56 10:41:31 17° 93° (E) 10:43:45 436.750
HUMSAT D 03 Dec 10:40:08 10:43:48 30° 94° (E) 10:47:26 437.325/437.525
Gurwin Techsat 1B 03 Dec 10:40:16 10:42:59 14° 30° (NNE) 10:45:44 435.225
CUTE 1.7 + AOD 2 03 Dec 10:42:10 10:45:38 25° 306° (NW) 10:49:05 437.475
Cosmos 2499 03 Dec 10:49:22 10:57:38 40° 51° (NE) 11:05:32 435.465 / 435.565
NOAA 18 03 Dec 10:50:08 10:54:08 21° 323° (NW) 10:58:07 137.9125
GOMX 1 03 Dec 10:50:56 10:52:13 11° 333° (NNW) 10:53:30 467.674
AO-85 03 Dec 10:55:32 10:59:41 60° 219° (SW) 11:03:35 145.980
BEESAT 2 03 Dec 10:55:59 10:59:55 51° 350° (N) 11:03:52 435.950
CANX-2 03 Dec 10:59:50 11:02:48 19° 311° (NW) 11:05:46 2200.000
Cosmos 2491 03 Dec 11:02:43 11:10:31 34° 314° (NW) 11:18:19 435.465 / 435.565
BUGSAT 1 03 Dec 11:03:16 11:07:09 35° 58° (ENE) 11:11:03 437.445
GONETS M04 03 Dec 11:04:24 11:12:37 42° 54° (NE) 11:20:47
ESTCUBE 1 03 Dec 11:05:04 11:07:26 14° 82° (E) 11:09:48 437.505/2401.250
NANOSAT C BR1 03 Dec 11:05:05 11:09:20 69° 69° (ENE) 11:13:38 145.865
Oscar 11 03 Dec 11:05:09 11:09:25 58° 294° (WNW) 11:13:39 145.826/435.025
Oscar 19 03 Dec 11:06:30 11:10:27 23° 44° (NE) 11:14:23 437.125/150
CUTE-I 03 Dec 11:07:27 11:10:03 14° 332° (NNW) 11:12:38 437.470
QB50P2 03 Dec 11:07:54 11:12:12 79° 71° (ENE) 11:16:32 145.880/145.840
POLYITAN 1 03 Dec 11:08:31 11:12:50 77° 70° (ENE) 11:17:09 437.675
UWE-3 03 Dec 11:09:16 11:13:25 38° 300° (WNW) 11:17:26 435.000/436.395/437.385
DELFI C3 03 Dec 11:09:55 11:13:55 82° 107° (ESE) 11:17:54 145.870
DOVE 4 03 Dec 11:16:27 11:18:17 12° 331° (NNW) 11:20:07 437.250
AIST 2 03 Dec 11:18:13 11:22:18 59° 140° (SE) 11:26:27 435.215
CINEMA 3 03 Dec 11:19:05 11:22:14 17° 319° (NW) 11:25:19 145.822/145.860
AAUSAT CUBESAT 2 03 Dec 11:20:28 11:23:52 25° 305° (NW) 11:27:17 437.432
QB50P1 03 Dec 11:22:36 11:26:54 85° 248° (WSW) 11:31:15 145.935-145.965
AISAT 03 Dec 11:25:30 11:26:33 11° 79° (E) 11:27:35 437.250
UNISAT 6 03 Dec 11:26:13 11:29:52 22° 272° (W) 11:33:30 437.425
DUCHIFAT 1 03 Dec 11:28:53 11:33:11 85° 253° (WSW) 11:37:30 145.980
Cosmos 2504 03 Dec 11:30:08 11:33:49 13° 305° (NW) 11:37:29 435.465 / 435.565
ITAMSAT 1 03 Dec 11:31:10 11:33:13 12° 26° (NNE) 11:35:17 435.822/435.867
SEEDS 03 Dec 11:31:52 11:34:29 16° 314° (NW) 11:37:07 437.485
Cubesat XI-IV 03 Dec 11:32:46 11:34:36 12° 338° (NNW) 11:36:27 437.490
NOAA 15 03 Dec 11:41:05 11:42:06 11° 341° (NNW) 11:43:07 137.62
POPSAT HIP 1 03 Dec 11:43:57 11:48:13 60° 257° (WSW) 11:52:30 437.405
COMPASS 1 03 Dec 11:48:08 11:50:41 16° 314° (NW) 11:53:15 437.405
50 SAT 03 Dec 11:55:17 11:56:36 12° 84° (E) 11:57:54 437.505
HO-68 03 Dec 11:57:02 12:03:06 31° 323° (NW) 12:09:12 435.675
CUBEBUG 2 03 Dec 11:57:23 12:00:27 18° 315° (NW) 12:03:26 437.445
ZACube-1 03 Dec 11:57:35 12:01:11 26° 307° (NW) 12:04:43 437.345
CUBEBUG 1 03 Dec 11:57:51 12:01:26 23° 90° (E) 12:05:00 437.445
TIGRISAT 03 Dec 11:58:43 12:01:17 14° 278° (W) 12:03:50 435.000
ANTELSAT 03 Dec 11:59:37 12:02:00 14° 279° (W) 12:04:22 437.575/2403.000
VELOX 1 03 Dec 12:01:05 12:04:16 19° 87° (E) 12:07:27 145.980
AO-7 03 Dec 12:04:38 12:11:37 31° 25° (NNE) 12:18:37 29.400- 29.500
CUSAT 1 03 Dec 12:04:57 12:07:26 26° 297° (WNW) 12:09:44 437.405
FUNcube-1 03 Dec 12:07:09 12:10:36 24° 308° (NW) 12:14:00 145.935
BEESAT 3 03 Dec 12:11:36 12:15:32 55° 15° (NNE) 12:19:29 437.485
JAS-2 03 Dec 12:13:16 12:19:05 39° 264° (W) 12:24:21 435.910
HUMSAT D 03 Dec 12:15:39 12:19:39 51° 295° (WNW) 12:23:37 437.325/437.525
Gurwin Techsat 1B 03 Dec 12:16:52 12:21:40 35° 53° (NE) 12:26:28 435.225
DANDE 03 Dec 12:19:54 12:24:02 71° 289° (WNW) 12:27:13 436.750
DX 1 03 Dec 12:24:30 12:27:30 18° 87° (E) 12:30:29 434.975-435.025
NOAA 18 03 Dec 12:31:26 12:33:00 11° 347° (NNW) 12:34:34 137.9125
BEESAT 2 03 Dec 12:34:15 12:38:13 53° 13° (NNE) 12:42:12 435.950
AO-85 03 Dec 12:36:50 12:39:19 16° 242° (WSW) 12:41:43 145.980
UKube-1 03 Dec 12:37:33 12:40:31 18° 87° (E) 12:43:29 .
